• en Belgique
  • Liste des pays
  • À 7 jours
  • Température de l'eau
  • Carte satellitaire
  • Carte météo
  • Widgets météo
  • user-avatar
    Se connecter

    Météo par heure à Melbourne

    Ce jour, 13 Décembre, Mercredi

    Heure Température Précipitation Vent Pression Humidité
    00:00 +18°C° 0 mm 1 m/s 758 mmHg 81%
    01:00 +18°C° 0 mm 1 m/s 758 mmHg 80%
    02:00 +18°C° 0 mm 1 m/s 757 mmHg 76%
    03:00 +18°C° 0 mm 2 m/s 757 mmHg 72%
    04:00 +19°C° 0 mm 3 m/s 756 mmHg 64%
    05:00 +20°C° 0 mm 3 m/s 756 mmHg 58%
    06:00 +22°C° 0 mm 3 m/s 756 mmHg 52%
    07:00 +24°C° 0 mm 3 m/s 756 mmHg 46%
    08:00 +27°C° 0 mm 4 m/s 756 mmHg 40%
    09:00 +30°C° 0 mm 4 m/s 756 mmHg 33%
    10:00 +34°C° 0 mm 5 m/s 755 mmHg 27%
    11:00 +35°C° 0 mm 5 m/s 754 mmHg 24%
    12:00 +37°C° 0 mm 4 m/s 754 mmHg 22%
    13:00 +38°C° 0 mm 4 m/s 753 mmHg 20%
    14:00 +38°C° 0 mm 4 m/s 752 mmHg 19%
    15:00 +40°C° 0 mm 4 m/s 752 mmHg 19%
    16:00 +40°C° 0 mm 4 m/s 751 mmHg 18%
    17:00 +37°C° 0 mm 4 m/s 750 mmHg 22%
    18:00 +35°C° 0 mm 4 m/s 750 mmHg 25%
    19:00 +33°C° 0 mm 4 m/s 750 mmHg 29%
    20:00 +32°C° 0 mm 4 m/s 750 mmHg 28%
    21:00 +30°C° 0 mm 5 m/s 750 mmHg 28%
    22:00 +29°C° 0 mm 5 m/s 750 mmHg 28%
    23:00 +28°C° 0 mm 4 m/s 750 mmHg 33%

    Demain, 14 Décembre, Jeudi

    Heure Température Précipitation Vent Pression Humidité
    00:00 +26°C° 0 mm 3 m/s 750 mmHg 38%
    01:00 +25°C° 0 mm 1 m/s 751 mmHg 43%
    02:00 +24°C° 0 mm 1 m/s 750 mmHg 45%
    03:00 +24°C° 0 mm 2 m/s 750 mmHg 48%
    04:00 +24°C° 0 mm 2 m/s 750 mmHg 50%
    05:00 +24°C° 0 mm 2 m/s 750 mmHg 53%
    06:00 +24°C° 0 mm 3 m/s 751 mmHg 56%
    07:00 +24°C° 0 mm 3 m/s 751 mmHg 59%
    08:00 +25°C° 0 mm 3 m/s 752 mmHg 56%
    09:00 +27°C° 0 mm 4 m/s 753 mmHg 53%
    10:00 +28°C° 0 mm 4 m/s 753 mmHg 51%
    11:00 +28°C° 0 mm 4 m/s 753 mmHg 52%
    12:00 +27°C° 0 mm 4 m/s 754 mmHg 53%
    13:00 +27°C° 0 mm 5 m/s 754 mmHg 53%
    14:00 +26°C° 0 mm 5 m/s 754 mmHg 54%
    15:00 +26°C° 0 mm 5 m/s 754 mmHg 54%
    16:00 +25°C° 0 mm 5 m/s 754 mmHg 54%
    17:00 +23°C° 0 mm 4 m/s 755 mmHg 57%
    18:00 +22°C° 0 mm 4 m/s 755 mmHg 60%
    19:00 +20°C° 0 mm 4 m/s 756 mmHg 62%
    20:00 +19°C° 0 mm 3 m/s 757 mmHg 67%
    21:00 +18°C° 0 mm 3 m/s 757 mmHg 71%
    22:00 +16°C° 0 mm 3 m/s 758 mmHg 76%
    23:00 +16°C° 0 mm 2 m/s 758 mmHg 78%

    Après-demain, 15 Décembre, Vendredi

    Heure Température Précipitation Vent Pression Humidité
    00:00 +15°C° 0 mm 2 m/s 758 mmHg 80%
    01:00 +14°C° 0 mm 2 m/s 758 mmHg 82%
    02:00 +14°C° 0 mm 1 m/s 758 mmHg 84%
    03:00 +13°C° 0 mm 1 m/s 758 mmHg 85%
    04:00 +13°C° 0 mm 1 m/s 758 mmHg 87%
    05:00 +14°C° 0 mm 1 m/s 758 mmHg 81%
    06:00 +15°C° 0 mm 1 m/s 758 mmHg 75%
    07:00 +18°C° 0 mm 1 m/s 758 mmHg 70%
    08:00 +20°C° 0 mm 1 m/s 758 mmHg 61%
    09:00 +22°C° 0 mm 1 m/s 758 mmHg 52%
    10:00 +24°C° 0 mm 1 m/s 757 mmHg 43%
    11:00 +26°C° 0 mm 1 m/s 757 mmHg 38%
    12:00 +28°C° 0 mm 1 m/s 757 mmHg 34%
    13:00 +29°C° 0 mm 1 m/s 756 mmHg 29%
    14:00 +29°C° 0 mm 2 m/s 756 mmHg 29%
    15:00 +30°C° 0 mm 2 m/s 756 mmHg 29%
    16:00 +30°C° 0 mm 3 m/s 755 mmHg 28%
    17:00 +27°C° 0 mm 3 m/s 755 mmHg 36%
    18:00 +25°C° 0 mm 3 m/s 756 mmHg 44%
    19:00 +22°C° 0 mm 3 m/s 756 mmHg 52%
    20:00 +21°C° 0 mm 3 m/s 757 mmHg 61%
    21:00 +19°C° 0 mm 3 m/s 757 mmHg 69%
    22:00 +17°C° 0 mm 2 m/s 758 mmHg 78%
    23:00 +16°C° 0 mm 2 m/s 758 mmHg 82%

    16 Décembre, Samedi

    Heure Température Précipitation Vent Pression Humidité
    00:00 +16°C° 0 mm 2 m/s 758 mmHg 85%
    01:00 +15°C° 0 mm 2 m/s 757 mmHg 89%
    02:00 +15°C° 0 mm 1 m/s 758 mmHg 90%
    03:00 +15°C° 0 mm 1 m/s 758 mmHg 91%
    04:00 +14°C° 0 mm 1 m/s 758 mmHg 93%
    05:00 +16°C° 0 mm 1 m/s 758 mmHg 87%
    06:00 +18°C° 0 mm 1 m/s 759 mmHg 80%
    07:00 +19°C° 0 mm 1 m/s 759 mmHg 74%
    08:00 +22°C° 0 mm 1 m/s 759 mmHg 65%
    09:00 +24°C° 0 mm 1 m/s 759 mmHg 56%
    10:00 +26°C° 0 mm 1 m/s 759 mmHg 46%
    11:00 +27°C° 0 mm 2 m/s 759 mmHg 43%
    12:00 +29°C° 0 mm 2 m/s 759 mmHg 39%
    13:00 +30°C° 0 mm 2 m/s 759 mmHg 36%
    14:00 +29°C° 0 mm 3 m/s 758 mmHg 38%
    15:00 +29°C° 0 mm 3 m/s 758 mmHg 40%
    16:00 +28°C° 0 mm 4 m/s 758 mmHg 42%
    17:00 +26°C° 0 mm 4 m/s 759 mmHg 50%
    18:00 +23°C° 0 mm 4 m/s 759 mmHg 57%
    19:00 +21°C° 0 mm 4 m/s 760 mmHg 65%
    20:00 +20°C° 0 mm 3 m/s 760 mmHg 69%
    21:00 +19°C° 0 mm 3 m/s 761 mmHg 72%
    22:00 +18°C° 0 mm 2 m/s 761 mmHg 76%
    23:00 +17°C° 0 mm 2 m/s 761 mmHg 79%

    17 Décembre, Dimanche

    Heure Température Précipitation Vent Pression Humidité
    00:00 +17°C° 0 mm 2 m/s 760 mmHg 82%
    01:00 +17°C° 0 mm 2 m/s 760 mmHg 85%
    02:00 +16°C° 0 mm 2 m/s 760 mmHg 87%
    03:00 +16°C° 0 mm 2 m/s 760 mmHg 89%
    04:00 +16°C° 0 mm 1 m/s 759 mmHg 91%
    05:00 +18°C° 0 mm 1 m/s 760 mmHg 85%
    06:00 +18°C° 0 mm 2 m/s 760 mmHg 79%
    07:00 +19°C° 0 mm 2 m/s 760 mmHg 74%
    08:00 +23°C° 0 mm 2 m/s 760 mmHg 65%
    09:00 +25°C° 0 mm 2 m/s 760 mmHg 56%
    10:00 +28°C° 0 mm 2 m/s 760 mmHg 47%
    11:00 +29°C° 0 mm 2 m/s 759 mmHg 43%
    12:00 +31°C° 0 mm 2 m/s 759 mmHg 38%
    13:00 +34°C° 0 mm 2 m/s 758 mmHg 33%
    14:00 +33°C° 0 mm 3 m/s 758 mmHg 35%
    15:00 +33°C° 0 mm 3 m/s 758 mmHg 36%
    16:00 +33°C° 0 mm 4 m/s 757 mmHg 37%
    17:00 +30°C° 0 mm 3 m/s 758 mmHg 44%
    18:00 +28°C° 0 mm 3 m/s 758 mmHg 51%
    19:00 +26°C° 0 mm 3 m/s 758 mmHg 58%
    20:00 +25°C° 0 mm 2 m/s 758 mmHg 63%
    21:00 +24°C° 0 mm 2 m/s 758 mmHg 67%
    22:00 +23°C° 0 mm 2 m/s 758 mmHg 71%
    23:00 +22°C° 0 mm 1 m/s 757 mmHg 73%

    18 Décembre, Lundi

    Heure Température Précipitation Vent Pression Humidité
    00:00 +22°C° 0 mm 1 m/s 757 mmHg 74%
    01:00 +21°C° 0 mm 1 m/s 756 mmHg 76%
    02:00 +22°C° 0 mm 1 m/s 756 mmHg 75%
    03:00 +22°C° 0 mm 1 m/s 755 mmHg 73%
    04:00 +22°C° 0 mm 1 m/s 755 mmHg 72%
    05:00 +23°C° 0 mm 1 m/s 755 mmHg 67%
    06:00 +25°C° 0 mm 1 m/s 756 mmHg 61%
    07:00 +26°C° 0 mm 1 m/s 756 mmHg 56%
    08:00 +29°C° 0 mm 2 m/s 755 mmHg 50%
    09:00 +31°C° 0 mm 2 m/s 755 mmHg 44%
    10:00 +35°C° 0 mm 2 m/s 755 mmHg 38%
    11:00 +36°C° 0 mm 2 m/s 754 mmHg 36%
    12:00 +37°C° 0 mm 2 m/s 753 mmHg 35%
    13:00 +38°C° 0 mm 2 m/s 753 mmHg 33%
    14:00 +37°C° 0,3 mm 2 m/s 752 mmHg 37%
    15:00 +36°C° 0,3 mm 3 m/s 752 mmHg 40%
    16:00 +36°C° 0,3 mm 3 m/s 752 mmHg 43%
    17:00 +34°C° 0,2 mm 4 m/s 751 mmHg 47%
    18:00 +32°C° 0,2 mm 4 m/s 751 mmHg 51%
    19:00 +29°C° 0,2 mm 5 m/s 751 mmHg 55%
    20:00 +29°C° 0 mm 4 m/s 750 mmHg 56%
    21:00 +28°C° 0 mm 3 m/s 750 mmHg 57%
    22:00 +27°C° 0 mm 2 m/s 749 mmHg 58%
    23:00 +28°C° 0 mm 2 m/s 748 mmHg 54%
    Voir plus